SCP
0 0 0 0 0 -0 -0 -0 0 0 0 0 -0 -0 -0 -0 -0 -0 -0 -0 -0 -0 -0 0 0 0 0 0 0 0 0 -0 0 0 0 0 0 0 0 0 0 0 0 0 0 0 0
0 0 0 0 0 0 0 0 -0 0 0 0 0 -0 -0 -0 -0 -0 -0 -0 -0 -0 -0 0 0 0 0 0 0 0 0 0 0 0 0 0 0 0 0 0 0 0 0 0 0 0 0
0 0 0 0 0 0 0 0 0 0 -0 0 0 0 -0 -0 -0 -0 -0 -0 -0 -0 -0 0 0 0 0 -0 0 0 0 0 0 0 0 0 0 0 0 0 0 0 0 0 0 0 0
0 0 0 0 0 0 0 0 0 0 0 -0 -0 0 -0 -0 -0 -0 -0 -0 -0 -0 0 0 0 0 0 0 0 0 0 0 0 0 0 0 0 0 0 0 0 0 0 0 0 0 0
0 0 0 0 0 0 0 0 0 0 0 0 -0 -0 -0 -0 -0 -0 -0 -0 0 0 0 0 0 0 0 0 0 0 0 0 0 0 0 0 0 0 0 0 0 0 0 0 0 0 0
0 0 0 0 0 0 0 0 0 0 -0 -0 0 -0 -0 -0 -0 -0 -0 0 0 0 0 0 0 0 0 0 0 0 0 0 0 0 0 0 0 0 0 0 0 0 0 0 0 0 0
0 0 0 0 0 0 0 0 0 0 0 -0 -0 -0 -0 -0 -0 -0 0 0 0 0 0 0 0 0 0 0 0 0 0 0 0 0 0 0 0 0 0 0 0 0 0 0 0 0 0
0 0 0 0 0 0 0 0 0 0 0 0 -0 -0 -0 -0 -0 0 0 0 0 0 0 0 0 0 0 0 0 0 0 0 0 0 0 0 0 0 0 0 0 0 0 0 0 0 0
0 0 0 0 0 0 0 0 0 0 0 0 0 0 0 -0 -0 0 0 0 0 0 -0 0 0 0 0 0 0 0 0 0 0 0 0 0 0 0 0 0 0 0 0 0 0 0 0
0 0 0 0 0 0 0 0 0 0 0 0 0 0 0 -0 0 0 0 0 0 -0 0 0 0 0 0 0 0 0 0 0 0 0 0 0 0 0 0 0 0 0 0 0 0 0 0
0 0 0 0 0 0 0 0 0 0 0 0 0 0 0 0 0 0 0 0 0 0 0 0 0 0 0 0 0 0 0 0 0 0 0 0 0 0 0 0 0 0 0 0 0 0 0
0 0 0 0 0 0 0 0 0 0 0 0 0 0 0 0 0 0 0 0 0 0 0 0 0 0 0 0 0 0 0 0 0 0 0 0 0 0 0 0 0 0 0 0 0 0 0
0 0 0 0 0 0 0 0 0 0 0 0 0 0 0 0 0 0 0 0 0 0 0 0 0 0 0 0 0 0 0 0 0 0 0 0 0 0 0 0 0 0 0 0 0 0 0
0 0 0 0 0 0 0 0 0 0 0 0 0 0 0 0 0 0 0 0 0 0 0 0 0 0 0 0 0 0 0 0 0 0 0 0 0 0 0 0 0 0 0 0 0 0 0
0 0 0 0 0 0 0 0 0 0 0 0 0 0 0 0 0 0 0 0 0 0 0 0 0 0 0 0 0 0 0 0 0 0 0 0 0 0 0 0 0 0 0 0 0 0 0
0 0 0 0 0 0 0 0 0 0 0 0 0 0 0 0 0 0 0 0 0 0 0 0 0 0 0 0 0 0 0 0 0 0 0 0 0 0 0 0 0 0 0 0 0 0 0
0 0 0 0 0 0 0 0 0 0 0 0 0 0 0 0 0 0 0 0 0 0 0 0 0 0 0 0 0 0 0 0 0 0 0 0 0 0 0 0 0 0 0 0 0 0 0
0 0 0 0 0 0 0 0 0 0 0 0 0 0 0 0 0 0 0 0 0 0 0 0 0 0 0 0 0 0 0 0 0 0 0 0 0 0 0 0 0 0 0 0 0 0 0
0 0 0 0 0 0 0 0 0 0 0 0 0 0 0 0 0 0 0 0 0 0 0 0 0 0 0 0 0 0 0 0 0 0 0 0 0 0 0 0 0 0 0 0 0 0 0
0 0 0 0 0 0 0 0 0 0 0 0 0 0 0 0 0 0 0 0 0 0 0 0 0 0 0 0 0 0 0 0 0 0 0 0 0 0 0 0 0 0 0 0 0 0 0
0 0 0 0 0 0 0 0 0 0 0 0 0 0 0 0 0 0 0 0 0 0 0 0 0 0 0 0 0 0 0 0 0 0 0 0 0 0 0 0 0 0 0 0 0 0 0
0 0 0 0 0 0 0 0 0 0 0 0 0 0 0 0 0 0 0 0 0 0 0 0 0 0 0 0 0 0 0 0 0 0 0 0 0 0 0 0 0 0 0 0 0 0 0
0 0 0 0 0 0 0 0 0 0 0 0 0 0 0 0 0 0 0 0 0 0 0 0 0 0 0 0 0 0 0 0 0 0 0 0 0 0 0 0 0 0 0 0 0 0 0
0 0 0 0 0 0 0 0 0 0 0 0 0 0 0 0 0 0 0 0 0 0 0 0 0 0 0 0 0 0 0 0 0 0 0 0 0 0 0 0 0 0 0 0 0 0 0
0 0 0 0 0 0 0 0 0 0 0 0 0 0 0 0 0 0 0 0 0 0 0 0 0 0 0 0 0 0 0 0 0 0 0 0 0 0 0 0 0 0 0 0 0 0 0
0 0 0 0 0 0 0 0 0 0 0 0 0 0 0 0 0 0 0 0 0 0 0 0 0 0 0 0 0 0 0 0 0 0 0 0 0 0 0 0 0 0 0 0 0 0 0
0 0 0 0 0 0 0 0 0 0 0 0 0 0 0 0 0 0 0 0 0 0 0 0 0 0 0 0 0 0 0 0 0 0 0 0 0 0 0 0 0 0 0 0 0 0 0
0 0 0 0 0 0 0 0 0 0 0 0 0 0 0 0 0 0 0 0 0 0 0 0 0 0 0 0 0 0 0 0 0 0 0 0 0 0 0 0 0 0 0 0 0 0 0
0 0 0 0 0 0 0 0 0 0 0 0 0 0 0 0 0 0 0 0 0 0 0 0 0 0 0 0 0 0 0 0 0 0 0 0 0 0 0 0 0 0 0 0 0 0 0
Wind_Speed_500mb
31 33 35 37 38 38 38 38 38 38 38 38 38 38 37 36 35 33 32 32 30 21 17 15 13 11 12 10 11 3 1 14 25 21 24 17 12 7 5 6 6 9 10 19 30 22 39
33 35 36 37 38 38 39 39 39 39 40 40 40 39 38 37 37 35 33 32 30 21 15 14 11 11 11 8 9 8 9 8 17 27 26 17 3 4 5 6 6 9 13 30 9 10 21
36 37 37 38 38 39 39 40 41 41 41 42 42 42 41 39 38 37 34 33 29 20 14 13 12 14 21 28 9 8 10 11 13 24 19 12 4 6 5 4 5 8 10 15 6 5 6
38 38 39 39 40 40 41 41 42 43 44 44 45 44 43 41 39 38 35 32 24 17 13 13 14 17 18 11 20 20 15 17 18 19 18 10 7 10 6 4 9 6 9 7 8 5 13
37 38 39 40 42 42 43 44 44 45 45 46 47 46 44 42 39 37 32 25 18 13 11 11 13 13 19 11 19 27 20 14 19 19 15 16 15 3 3 9 9 13 3 4 15 14 8
40 40 40 42 43 44 45 45 46 47 47 47 48 48 46 42 39 34 24 16 6 8 9 12 19 12 19 1 3 32 22 18 13 4 8 7 6 6 7 9 7 7 4 5 8 5 4
42 43 43 44 46 47 47 47 46 47 48 49 49 49 47 42 37 29 17 0 6 4 12 16 5 12 13 10 5 19 33 24 18 1 3 6 8 6 12 9 5 3 5 6 10 10 8
42 43 45 46 47 48 49 49 48 48 47 49 49 49 47 41 37 13 13 11 17 16 22 29 46 55 51 47 16 13 30 20 11 8 5 10 7 15 6 7 7 5 2 9 11 6 3
45 45 46 48 49 49 49 51 51 49 48 48 48 49 47 39 30 2 6 12 19 14 10 22 36 39 56 32 27 25 23 31 9 11 9 12 9 13 8 5 6 7 9 8 12 8 7
48 48 48 49 49 49 50 51 51 52 50 48 47 46 47 39 15 14 10 7 14 9 8 13 9 11 28 24 11 36 30 30 4 21 14 10 8 9 5 8 12 6 13 11 6 5 2
46 47 48 48 49 50 50 50 51 51 52 49 47 43 42 38 33 18 12 6 3 3 7 5 7 3 25 36 15 27 43 30 18 11 13 13 9 6 4 7 8 14 2 8 6 7 7
47 48 49 49 49 49 50 51 50 50 51 50 47 44 40 37 32 17 12 10 5 9 13 9 10 9 12 16 12 14 18 29 17 12 1 13 5 3 9 2 9 8 11 17 10 7 6
47 49 50 51 51 49 49 49 50 51 50 50 47 43 40 38 23 8 7 7 8 7 9 6 1 7 5 10 8 10 14 13 13 9 4 6 9 6 7 7 4 11 12 4 6 8 10
48 48 48 52 52 52 50 49 48 50 50 50 47 45 40 35 27 20 11 7 7 10 11 10 4 5 16 13 12 7 14 12 3 10 7 12 12 12 8 15 12 9 15 11 10 8 8
45 47 49 47 50 51 50 49 48 46 47 50 44 44 35 22 27 34 19 5 15 13 7 11 12 3 6 6 10 8 13 18 19 14 15 10 10 8 9 8 12 6 6 7 15 8 5
43 44 40 43 43 44 45 46 48 45 43 44 43 42 20 15 25 49 8 10 9 7 9 7 5 3 6 3 8 13 15 9 12 21 22 15 1 5 6 10 9 7 8 7 5 11 7
38 36 36 39 39 37 39 42 44 45 38 36 32 19 12 11 44 29 9 13 9 18 12 4 5 6 3 4 8 10 13 7 12 9 13 10 8 10 2 3 11 4 1 13 11 7 11
40 37 33 35 34 31 34 38 41 41 35 27 13 4 5 47 8 2 8 12 6 6 1 8 6 13 9 3 5 7 13 12 9 23 21 15 12 8 13 7 4 5 9 10 10 8 5
38 32 34 32 30 32 33 33 36 34 32 29 20 9 22 30 6 4 6 6 10 6 10 8 8 14 9 12 7 7 3 6 9 11 17 17 2 5 13 10 2 9 4 8 12 7 10
34 30 28 27 28 31 30 30 32 29 27 25 11 4 5 28 8 7 8 7 7 7 16 13 10 6 4 6 5 9 3 10 7 8 15 14 7 13 19 11 6 8 7 6 11 8 10
30 29 24 27 27 28 27 28 30 27 24 17 7 5 1 5 5 5 4 5 4 6 7 10 7 13 11 7 4 4 2 5 10 8 8 8 8 7 8 6 8 7 6 4 4 9 9
29 30 29 28 27 24 23 27 28 26 20 11 7 7 8 9 10 5 9 8 11 9 10 12 7 3 13 12 14 14 10 4 3 11 7 5 3 4 7 6 11 7 2 9 8 9 5
30 27 28 26 24 22 20 24 27 27 16 6 6 8 7 9 5 4 8 8 8 2 16 21 9 5 9 6 9 7 6 16 9 11 5 6 11 5 6 2 9 6 9 11 2 4 10
31 27 28 31 23 23 19 21 23 23 19 11 9 9 4 7 3 3 2 2 7 6 7 13 4 8 5 16 27 23 26 23 23 12 3 11 9 5 6 6 3 11 7 2 7 4 6
27 28 25 26 24 21 18 18 20 20 22 17 13 8 4 7 7 8 6 7 16 15 10 9 2 1 11 11 9 10 11 9 8 14 12 6 10 7 9 7 7 3 8 12 12 12 12
27 21 22 24 21 19 19 17 24 24 15 19 16 16 9 7 6 8 6 5 4 5 8 4 3 5 6 7 7 9 9 11 7 3 9 10 13 9 5 9 13 15 6 14 11 8 21
28 24 23 22 20 19 19 19 18 12 13 21 17 13 14 8 10 8 4 4 6 4 5 8 14 6 11 5 5 6 6 8 11 15 9 6 7 10 6 5 11 13 12 12 9 14 26
22 22 24 22 21 21 19 18 17 17 15 21 15 17 27 9 32 24 15 12 10 4 0 9 3 5 7 7 6 6 5 8 6 10 11 12 12 7 6 6 11 15 11 15 13 8 26
23 23 23 22 23 24 20 17 15 12 13 18 12 9 17 27 24 33 35 29 31 18 11 8 1 2 3 8 2 6 4 2 6 7 4 4 10 9 13 11 8 15 8 18 13 24 20
Wind_Direction_500mb
359 357 355 354 353 351 350 348 347 346 345 345 343 343 342 339 336 334 331 328 324 312 308 301 298 294 300 283 256 205 86 186 198 195 170 161 164 149 162 203 180 191 243 231 258 239 204
351 349 348 348 346 346 346 345 344 342 341 340 339 337 337 336 333 330 328 324 319 305 296 296 289 291 287 266 223 231 231 199 194 178 172 177 146 326 217 216 183 225 275 283 319 252 195
344 344 343 343 344 343 341 341 342 340 339 337 336 334 333 333 331 327 327 320 315 298 280 281 284 287 280 253 253 204 209 204 192 177 183 198 317 318 326 277 289 310 329 333 56 156 132
336 337 339 339 340 339 339 339 338 337 336 335 334 332 331 331 330 326 329 318 310 289 268 266 271 287 267 257 230 206 205 201 196 191 207 253 306 279 214 303 6 34 48 12 303 348 149
330 331 331 333 335 336 336 335 335 334 334 333 332 330 329 330 329 326 332 319 305 279 260 262 270 278 269 265 226 190 198 191 195 207 230 262 294 224 135 87 17 3 152 344 326 8 127
327 328 329 329 330 332 331 331 331 331 331 331 330 329 328 330 330 328 339 327 321 277 254 256 248 285 250 99 230 200 200 189 170 188 234 198 169 77 42 73 218 204 110 319 272 258 101
321 323 324 326 326 328 328 327 328 328 329 329 329 327 327 331 329 332 356 333 310 287 249 227 221 250 262 306 291 207 221 216 207 69 83 31 66 215 237 188 154 139 148 229 246 248 222
320 319 320 321 322 323 324 324 325 326 327 327 328 326 325 331 328 333 27 71 33 302 297 263 254 254 254 261 298 235 212 189 145 182 103 19 242 224 187 172 188 203 259 276 287 317 160
316 316 316 317 319 320 320 321 321 322 324 325 325 325 324 331 326 206 116 37 356 328 254 280 246 242 237 237 231 239 199 189 143 147 174 166 230 113 167 199 194 211 191 234 208 331 36
311 314 315 315 316 317 318 318 319 320 320 322 322 323 323 329 323 333 183 354 342 334 23 273 238 237 193 182 228 217 200 188 160 183 167 222 245 206 162 237 169 295 211 206 231 105 190
309 310 311 312 313 315 315 315 316 317 316 318 318 319 319 320 309 314 243 285 305 303 338 240 189 171 173 173 157 200 206 193 166 173 120 240 176 142 184 164 145 242 63 145 77 81 62
308 309 309 310 311 312 313 315 315 313 314 314 314 314 312 309 305 299 230 216 166 51 252 323 142 158 143 216 180 136 160 191 199 131 106 215 239 231 212 178 186 146 65 44 52 70 39
305 305 307 308 309 310 311 312 312 312 312 311 310 308 302 294 291 246 235 183 63 167 321 306 108 149 206 188 174 153 151 148 154 141 211 327 249 238 191 311 62 79 63 354 3 19 216
309 307 307 308 308 310 311 311 311 312 312 310 310 303 297 283 267 226 229 60 178 231 257 297 318 270 185 157 215 137 134 159 173 112 111 174 316 176 174 186 184 170 153 152 189 180 245
305 308 308 309 309 310 311 311 311 312 314 313 313 307 301 279 233 194 170 143 203 210 285 332 321 252 227 184 151 130 187 188 185 167 165 139 264 279 211 147 130 170 170 173 101 11 74
306 304 307 312 312 310 310 313 313 313 316 319 317 317 301 262 203 176 117 229 234 240 346 353 262 37 180 174 134 156 178 210 211 184 150 205 352 243 280 103 46 143 156 81 23 132 191
308 308 304 311 314 314 314 315 316 315 319 320 316 313 315 200 159 170 167 222 270 269 255 251 286 300 268 176 135 172 185 240 199 160 140 132 123 271 335 118 178 141 171 59 110 115 150
302 302 305 311 318 317 320 320 323 322 323 322 305 321 176 152 124 188 165 192 227 270 262 284 247 229 243 240 164 152 188 211 172 151 158 195 156 193 224 291 247 144 147 128 118 212 73
303 303 302 303 312 316 317 324 330 334 336 336 319 276 186 185 160 230 261 239 218 237 225 238 262 205 202 206 173 173 194 20 127 147 163 177 205 100 351 354 25 97 93 118 110 97 184
304 307 301 297 309 311 316 323 323 332 335 333 304 334 166 212 253 177 177 229 236 279 252 233 256 239 189 196 27 160 83 6 44 84 105 108 99 165 209 197 147 140 139 150 118 115 164
299 299 295 294 303 307 318 318 321 325 326 325 271 269 238 233 251 211 235 180 202 324 261 225 253 217 188 146 73 141 107 357 49 32 60 93 111 112 79 75 98 111 131 187 97 142 138
300 291 290 291 297 297 313 320 328 333 326 302 290 336 324 276 290 203 180 233 222 253 217 269 249 261 170 176 176 192 146 172 177 16 71 34 145 118 58 38 109 115 133 192 193 154 248
287 289 287 287 291 293 305 311 327 339 331 290 282 290 301 291 305 143 198 210 192 22 255 247 272 253 158 156 114 108 99 125 143 147 115 87 136 96 184 314 176 16 234 183 149 146 126
287 280 285 290 284 275 287 299 316 323 331 297 297 305 296 278 271 232 284 320 242 228 260 304 242 157 157 131 107 91 70 78 83 36 118 123 95 79 128 39 84 254 343 8 138 134 204
292 273 286 292 287 269 283 294 295 310 307 296 282 277 289 284 292 290 306 279 291 278 230 250 359 299 158 152 69 54 356 29 11 48 23 55 120 88 132 172 283 194 196 146 169 243 195
285 276 273 286 277 272 271 288 294 297 275 285 282 249 247 302 236 311 296 308 289 313 313 273 307 31 148 82 79 134 171 175 219 84 30 53 68 108 124 138 199 235 241 181 121 288 193
284 277 273 275 282 275 269 284 299 302 286 284 278 249 217 255 292 336 281 275 311 303 273 322 338 17 35 88 95 139 199 178 158 163 168 62 31 136 120 186 288 249 213 149 116 236 180
295 286 274 280 276 276 267 285 288 280 285 285 277 234 212 265 280 286 284 319 332 341 301 337 32 338 38 75 126 182 138 213 112 167 170 154 136 169 96 93 262 189 119 162 206 160 176
279 293 282 277 270 271 260 275 281 271 283 282 282 198 223 240 270 285 281 269 273 279 286 329 282 161 186 94 78 105 124 70 145 189 23 151 173 178 170 209 257 204 240 209 194 170 175
Wind_Speed_850mb
31 33 35 37 38 38 38 38 38 38 38 38 38 38 37 36 35 33 32 32 30 21 17 15 13 11 12 10 11 3 1 14 25 21 24 17 12 7 5 6 6 9 10 19 30 22 39
33 35 36 37 38 38 39 39 39 39 40 40 40 39 38 37 37 35 33 32 30 21 15 14 11 11 11 8 9 8 9 8 17 27 26 17 3 4 5 6 6 9 13 30 9 10 21
36 37 37 38 38 39 39 40 41 41 41 42 42 42 41 39 38 37 34 33 29 20 14 13 12 14 21 28 9 8 10 11 13 24 19 12 4 6 5 4 5 8 10 15 6 5 6
38 38 39 39 40 40 41 41 42 43 44 44 45 44 43 41 39 38 35 32 24 17 13 13 14 17 18 11 20 20 15 17 18 19 18 10 7 10 6 4 9 6 9 7 8 5 13
37 38 39 40 42 42 43 44 44 45 45 46 47 46 44 42 39 37 32 25 18 13 11 11 13 13 19 11 19 27 20 14 19 19 15 16 15 3 3 9 9 13 3 4 15 14 8
40 40 40 42 43 44 45 45 46 47 47 47 48 48 46 42 39 34 24 16 6 8 9 12 19 12 19 1 3 32 22 18 13 4 8 7 6 6 7 9 7 7 4 5 8 5 4
42 43 43 44 46 47 47 47 46 47 48 49 49 49 47 42 37 29 17 0 6 4 12 16 5 12 13 10 5 19 33 24 18 1 3 6 8 6 12 9 5 3 5 6 10 10 8
42 43 45 46 47 48 49 49 48 48 47 49 49 49 47 41 37 13 13 11 17 16 22 29 46 55 51 47 16 13 30 20 11 8 5 10 7 15 6 7 7 5 2 9 11 6 3
45 45 46 48 49 49 49 51 51 49 48 48 48 49 47 39 30 2 6 12 19 14 10 22 36 39 56 32 27 25 23 31 9 11 9 12 9 13 8 5 6 7 9 8 12 8 7
48 48 48 49 49 49 50 51 51 52 50 48 47 46 47 39 15 14 10 7 14 9 8 13 9 11 28 24 11 36 30 30 4 21 14 10 8 9 5 8 12 6 13 11 6 5 2
46 47 48 48 49 50 50 50 51 51 52 49 47 43 42 38 33 18 12 6 3 3 7 5 7 3 25 36 15 27 43 30 18 11 13 13 9 6 4 7 8 14 2 8 6 7 7
47 48 49 49 49 49 50 51 50 50 51 50 47 44 40 37 32 17 12 10 5 9 13 9 10 9 12 16 12 14 18 29 17 12 1 13 5 3 9 2 9 8 11 17 10 7 6
47 49 50 51 51 49 49 49 50 51 50 50 47 43 40 38 23 8 7 7 8 7 9 6 1 7 5 10 8 10 14 13 13 9 4 6 9 6 7 7 4 11 12 4 6 8 10
48 48 48 52 52 52 50 49 48 50 50 50 47 45 40 35 27 20 11 7 7 10 11 10 4 5 16 13 12 7 14 12 3 10 7 12 12 12 8 15 12 9 15 11 10 8 8
45 47 49 47 50 51 50 49 48 46 47 50 44 44 35 22 27 34 19 5 15 13 7 11 12 3 6 6 10 8 13 18 19 14 15 10 10 8 9 8 12 6 6 7 15 8 5
43 44 40 43 43 44 45 46 48 45 43 44 43 42 20 15 25 49 8 10 9 7 9 7 5 3 6 3 8 13 15 9 12 21 22 15 1 5 6 10 9 7 8 7 5 11 7
38 36 36 39 39 37 39 42 44 45 38 36 32 19 12 11 44 29 9 13 9 18 12 4 5 6 3 4 8 10 13 7 12 9 13 10 8 10 2 3 11 4 1 13 11 7 11
40 37 33 35 34 31 34 38 41 41 35 27 13 4 5 47 8 2 8 12 6 6 1 8 6 13 9 3 5 7 13 12 9 23 21 15 12 8 13 7 4 5 9 10 10 8 5
38 32 34 32 30 32 33 33 36 34 32 29 20 9 22 30 6 4 6 6 10 6 10 8 8 14 9 12 7 7 3 6 9 11 17 17 2 5 13 10 2 9 4 8 12 7 10
34 30 28 27 28 31 30 30 32 29 27 25 11 4 5 28 8 7 8 7 7 7 16 13 10 6 4 6 5 9 3 10 7 8 15 14 7 13 19 11 6 8 7 6 11 8 10
30 29 24 27 27 28 27 28 30 27 24 17 7 5 1 5 5 5 4 5 4 6 7 10 7 13 11 7 4 4 2 5 10 8 8 8 8 7 8 6 8 7 6 4 4 9 9
29 30 29 28 27 24 23 27 28 26 20 11 7 7 8 9 10 5 9 8 11 9 10 12 7 3 13 12 14 14 10 4 3 11 7 5 3 4 7 6 11 7 2 9 8 9 5
30 27 28 26 24 22 20 24 27 27 16 6 6 8 7 9 5 4 8 8 8 2 16 21 9 5 9 6 9 7 6 16 9 11 5 6 11 5 6 2 9 6 9 11 2 4 10
31 27 28 31 23 23 19 21 23 23 19 11 9 9 4 7 3 3 2 2 7 6 7 13 4 8 5 16 27 23 26 23 23 12 3 11 9 5 6 6 3 11 7 2 7 4 6
27 28 25 26 24 21 18 18 20 20 22 17 13 8 4 7 7 8 6 7 16 15 10 9 2 1 11 11 9 10 11 9 8 14 12 6 10 7 9 7 7 3 8 12 12 12 12
27 21 22 24 21 19 19 17 24 24 15 19 16 16 9 7 6 8 6 5 4 5 8 4 3 5 6 7 7 9 9 11 7 3 9 10 13 9 5 9 13 15 6 14 11 8 21
28 24 23 22 20 19 19 19 18 12 13 21 17 13 14 8 10 8 4 4 6 4 5 8 14 6 11 5 5 6 6 8 11 15 9 6 7 10 6 5 11 13 12 12 9 14 26
22 22 24 22 21 21 19 18 17 17 15 21 15 17 27 9 32 24 15 12 10 4 0 9 3 5 7 7 6 6 5 8 6 10 11 12 12 7 6 6 11 15 11 15 13 8 26
23 23 23 22 23 24 20 17 15 12 13 18 12 9 17 27 24 33 35 29 31 18 11 8 1 2 3 8 2 6 4 2 6 7 4 4 10 9 13 11 8 15 8 18 13 24 20
Wind_Direction_850mb
359 357 355 354 353 351 350 348 347 346 345 345 343 343 342 339 336 334 331 328 324 312 308 301 298 294 300 283 256 205 86 186 198 195 170 161 164 149 162 203 180 191 243 231 258 239 204
351 349 348 348 346 346 346 345 344 342 341 340 339 337 337 336 333 330 328 324 319 305 296 296 289 291 287 266 223 231 231 199 194 178 172 177 146 326 217 216 183 225 275 283 319 252 195
344 344 343 343 344 343 341 341 342 340 339 337 336 334 333 333 331 327 327 320 315 298 280 281 284 287 280 253 253 204 209 204 192 177 183 198 317 318 326 277 289 310 329 333 56 156 132
336 337 339 339 340 339 339 339 338 337 336 335 334 332 331 331 330 326 329 318 310 289 268 266 271 287 267 257 230 206 205 201 196 191 207 253 306 279 214 303 6 34 48 12 303 348 149
330 331 331 333 335 336 336 335 335 334 334 333 332 330 329 330 329 326 332 319 305 279 260 262 270 278 269 265 226 190 198 191 195 207 230 262 294 224 135 87 17 3 152 344 326 8 127
327 328 329 329 330 332 331 331 331 331 331 331 330 329 328 330 330 328 339 327 321 277 254 256 248 285 250 99 230 200 200 189 170 188 234 198 169 77 42 73 218 204 110 319 272 258 101
321 323 324 326 326 328 328 327 328 328 329 329 329 327 327 331 329 332 356 333 310 287 249 227 221 250 262 306 291 207 221 216 207 69 83 31 66 215 237 188 154 139 148 229 246 248 222
320 319 320 321 322 323 324 324 325 326 327 327 328 326 325 331 328 333 27 71 33 302 297 263 254 254 254 261 298 235 212 189 145 182 103 19 242 224 187 172 188 203 259 276 287 317 160
316 316 316 317 319 320 320 321 321 322 324 325 325 325 324 331 326 206 116 37 356 328 254 280 246 242 237 237 231 239 199 189 143 147 174 166 230 113 167 199 194 211 191 234 208 331 36
311 314 315 315 316 317 318 318 319 320 320 322 322 323 323 329 323 333 183 354 342 334 23 273 238 237 193 182 228 217 200 188 160 183 167 222 245 206 162 237 169 295 211 206 231 105 190
309 310 311 312 313 315 315 315 316 317 316 318 318 319 319 320 309 314 243 285 305 303 338 240 189 171 173 173 157 200 206 193 166 173 120 240 176 142 184 164 145 242 63 145 77 81 62
308 309 309 310 311 312 313 315 315 313 314 314 314 314 312 309 305 299 230 216 166 51 252 323 142 158 143 216 180 136 160 191 199 131 106 215 239 231 212 178 186 146 65 44 52 70 39
305 305 307 308 309 310 311 312 312 312 312 311 310 308 302 294 291 246 235 183 63 167 321 306 108 149 206 188 174 153 151 148 154 141 211 327 249 238 191 311 62 79 63 354 3 19 216
309 307 307 308 308 310 311 311 311 312 312 310 310 303 297 283 267 226 229 60 178 231 257 297 318 270 185 157 215 137 134 159 173 112 111 174 316 176 174 186 184 170 153 152 189 180 245
305 308 308 309 309 310 311 311 311 312 314 313 313 307 301 279 233 194 170 143 203 210 285 332 321 252 227 184 151 130 187 188 185 167 165 139 264 279 211 147 130 170 170 173 101 11 74
306 304 307 312 312 310 310 313 313 313 316 319 317 317 301 262 203 176 117 229 234 240 346 353 262 37 180 174 134 156 178 210 211 184 150 205 352 243 280 103 46 143 156 81 23 132 191
308 308 304 311 314 314 314 315 316 315 319 320 316 313 315 200 159 170 167 222 270 269 255 251 286 300 268 176 135 172 185 240 199 160 140 132 123 271 335 118 178 141 171 59 110 115 150
302 302 305 311 318 317 320 320 323 322 323 322 305 321 176 152 124 188 165 192 227 270 262 284 247 229 243 240 164 152 188 211 172 151 158 195 156 193 224 291 247 144 147 128 118 212 73
303 303 302 303 312 316 317 324 330 334 336 336 319 276 186 185 160 230 261 239 218 237 225 238 262 205 202 206 173 173 194 20 127 147 163 177 205 100 351 354 25 97 93 118 110 97 184
304 307 301 297 309 311 316 323 323 332 335 333 304 334 166 212 253 177 177 229 236 279 252 233 256 239 189 196 27 160 83 6 44 84 105 108 99 165 209 197 147 140 139 150 118 115 164
299 299 295 294 303 307 318 318 321 325 326 325 271 269 238 233 251 211 235 180 202 324 261 225 253 217 188 146 73 141 107 357 49 32 60 93 111 112 79 75 98 111 131 187 97 142 138
300 291 290 291 297 297 313 320 328 333 326 302 290 336 324 276 290 203 180 233 222 253 217 269 249 261 170 176 176 192 146 172 177 16 71 34 145 118 58 38 109 115 133 192 193 154 248
287 289 287 287 291 293 305 311 327 339 331 290 282 290 301 291 305 143 198 210 192 22 255 247 272 253 158 156 114 108 99 125 143 147 115 87 136 96 184 314 176 16 234 183 149 146 126
287 280 285 290 284 275 287 299 316 323 331 297 297 305 296 278 271 232 284 320 242 228 260 304 242 157 157 131 107 91 70 78 83 36 118 123 95 79 128 39 84 254 343 8 138 134 204
292 273 286 292 287 269 283 294 295 310 307 296 282 277 289 284 292 290 306 279 291 278 230 250 359 299 158 152 69 54 356 29 11 48 23 55 120 88 132 172 283 194 196 146 169 243 195
285 276 273 286 277 272 271 288 294 297 275 285 282 249 247 302 236 311 296 308 289 313 313 273 307 31 148 82 79 134 171 175 219 84 30 53 68 108 124 138 199 235 241 181 121 288 193
284 277 273 275 282 275 269 284 299 302 286 284 278 249 217 255 292 336 281 275 311 303 273 322 338 17 35 88 95 139 199 178 158 163 168 62 31 136 120 186 288 249 213 149 116 236 180
295 286 274 280 276 276 267 285 288 280 285 285 277 234 212 265 280 286 284 319 332 341 301 337 32 338 38 75 126 182 138 213 112 167 170 154 136 169 96 93 262 189 119 162 206 160 176
279 293 282 277 270 271 260 275 281 271 283 282 282 198 223 240 270 285 281 269 273 279 286 329 282 161 186 94 78 105 124 70 145 189 23 151 173 178 170 209 257 204 240 209 194 170 175